Weather History for Big Bear City, CA

Change the Weather History Date:

Monday, January 14, 2013

  Actual Average (KBUO) Record (KBUO)
Temperature  
Mean Temperature 10 °F -  
Max Temperature 24 °F 58 °F 77 °F (2000)
Min Temperature -4 °F 41 °F 32 °F (2001)
Degree Days  
Heating Degree Days 55    
Moisture  
Dew Point -10 °F    
Average Humidity 39    
Maximum Humidity 78    
Minimum Humidity 14    
Precipitation  
Precipitation 0.00 in - - ()
Sea Level Pressure  
Sea Level Pressure 30.10 in    
Wind  
Wind Speed 7 mph (NE)    
Max Wind Speed 22 mph    
Max Gust Speed 34 mph    
Visibility 10 miles    
Events      
Averages and records for this station are not official NWS values.
T = Trace of Precipitation, MM = Missing Value Source: NWS Daily Summary

Daily Weather History Graph

Daily Weather History Graph

Search for Another Location

Airport:

Trip Planner

Search our weather history database for the weather conditions in past years. The results will help you decide how hot, cold, wet, or windy it might be!

Date:

Astronomy

Jan. 14, 2013 Rise Set
Actual Time 6:53 AM PST 5:00 PM PST
Civil Twilight 6:26 AM PST 5:27 PM PST
Nautical Twilight 5:55 AM PST 5:58 PM PST
Astronomical Twilight 5:25 AM PST 6:28 PM PST
Moon 8:40 AM PST (1/14) 8:38 PM PST (1/14)
Length of Visible Light 11h 01m
Length of Day
10h 06m
Waxing Crescent, 12% of the Moon is Illuminated
Jan 14
Waxing Crescent
Jan 18
First Quarter
Jan 26
Full
Feb 3
Last Quarter
Feb 9
New

Hourly Weather History & Observations

Time (PST) Temp. Windchill Dew Point Humidity Pressure Visibility Wind Dir Wind Speed Gust Speed Precip Events Conditions
12:15 AM 8.6 °F 0.1 °F -4.0 °F 57% 29.98 in 10.0 mi East 4.6 mph - N/A   Clear
12:55 AM 6.8 °F - -4.0 °F 61% 29.99 in 10.0 mi Calm Calm - N/A   Clear
1:15 AM 5.0 °F - -4.0 °F 66% 29.99 in 10.0 mi Calm Calm - N/A   Clear
1:35 AM 5.0 °F - -4.0 °F 66% 29.99 in 10.0 mi Calm Calm - N/A   Clear
1:55 AM 3.2 °F - -5.8 °F 66% 30.00 in 10.0 mi Calm Calm - N/A   Clear
2:15 AM 3.2 °F - -5.8 °F 66% 30.00 in 10.0 mi Calm Calm - N/A   Clear
2:35 AM 1.4 °F - -5.8 °F 72% 30.00 in 10.0 mi Calm Calm - N/A   Clear
2:55 AM 1.4 °F - -5.8 °F 72% 30.01 in 10.0 mi Calm Calm - N/A   Clear
3:15 AM 1.4 °F - -5.8 °F 72% 30.00 in 10.0 mi Calm Calm - N/A   Clear
3:35 AM -0.4 °F - -5.8 °F 78% 30.00 in 10.0 mi Calm Calm - N/A   Clear
4:15 AM -0.4 °F - -7.6 °F 72% 30.00 in 10.0 mi Calm Calm - N/A   Clear
4:35 AM -0.4 °F -8.3 °F -7.6 °F 72% 30.00 in 10.0 mi NE 3.5 mph - N/A   Clear
4:55 AM -0.4 °F - -9.4 °F 66% 30.00 in 10.0 mi Calm Calm - N/A   Clear
5:15 AM -0.4 °F - -9.4 °F 66% 30.00 in 10.0 mi Calm Calm - N/A   Clear
5:35 AM -0.4 °F - -7.6 °F 72% 30.00 in 10.0 mi Calm Calm - N/A   Clear
5:55 AM -0.4 °F - -9.4 °F 66% 30.00 in 10.0 mi Calm Calm - N/A   Clear
6:15 AM -2.2 °F -10.4 °F -9.4 °F 71% 30.02 in 10.0 mi NE 3.5 mph - N/A   Clear
6:35 AM -4.0 °F - -9.4 °F 78% 30.02 in 10.0 mi Calm Calm - N/A   Clear
6:55 AM -4.0 °F - -11.2 °F 71% 30.03 in 10.0 mi Calm Calm - N/A   Clear
7:15 AM -2.2 °F - -9.4 °F 71% 30.05 in 10.0 mi Calm Calm - N/A   Clear
7:35 AM 1.4 °F -8.3 °F -9.4 °F 61% 30.06 in 10.0 mi East 4.6 mph - N/A   Clear
7:55 AM 12.2 °F 0.7 °F -14.8 °F 29% 30.07 in 10.0 mi ENE 8.1 mph - N/A   Clear
8:15 AM 14.0 °F 2.0 °F -16.6 °F 25% 30.08 in 10.0 mi NE 9.2 mph 20.7 mph N/A   Clear
8:35 AM 14.0 °F -0.2 °F -18.4 °F 22% 30.08 in 10.0 mi NNE 12.7 mph 24.2 mph N/A   Clear
8:55 AM 15.8 °F 3.4 °F -16.6 °F 23% 30.09 in 10.0 mi NE 10.4 mph 20.7 mph N/A   Clear
9:35 AM 17.6 °F 5.0 °F -16.6 °F 21% 30.09 in 10.0 mi ENE 11.5 mph 16.1 mph N/A   Clear
9:55 AM 19.4 °F 8.6 °F -16.6 °F 20% 30.09 in 10.0 mi East 9.2 mph 18.4 mph N/A   Clear
10:15 AM 19.4 °F 7.9 °F -16.6 °F 20% 30.09 in 10.0 mi ENE 10.4 mph 17.3 mph N/A   Clear
10:35 AM 21.2 °F 7.8 °F -22.0 °F 14% 30.09 in 10.0 mi NNE 15.0 mph 21.9 mph N/A   Clear
10:55 AM 21.2 °F 8.9 °F -22.0 °F 14% 30.09 in 10.0 mi NE 12.7 mph 19.6 mph N/A   Clear
11:15 AM 21.2 °F 11.7 °F -22.0 °F 14% 30.09 in 10.0 mi NNE 8.1 mph 24.2 mph N/A   Clear
11:35 AM 21.2 °F 9.5 °F -20.2 °F 15% 30.08 in 10.0 mi NE 11.5 mph 20.7 mph N/A   Clear
11:55 AM 21.2 °F 8.3 °F -20.2 °F 15% 30.08 in 10.0 mi NNE 13.8 mph 20.7 mph N/A   Clear
12:15 PM 21.2 °F 6.8 °F -18.4 °F 17% 30.08 in 10.0 mi NE 17.3 mph 23.0 mph N/A   Clear
12:35 PM 23.0 °F 11.1 °F -18.4 °F 15% 30.08 in 10.0 mi NNE 12.7 mph 17.3 mph N/A   Clear
12:55 PM 23.0 °F 12.4 °F -18.4 °F 15% 30.08 in 10.0 mi NNE 10.4 mph 20.7 mph N/A   Clear
1:15 PM 23.0 °F 11.1 °F -16.6 °F 17% 30.08 in 10.0 mi NNE 12.7 mph 23.0 mph N/A   Clear
1:35 PM 23.0 °F 11.7 °F -16.6 °F 17% 30.09 in 10.0 mi NNE 11.5 mph 23.0 mph N/A   Clear
2:15 PM 23.0 °F 10.6 °F -16.6 °F 17% 30.10 in 10.0 mi NNE 13.8 mph 32.2 mph N/A   Clear
2:35 PM 23.0 °F 9.2 °F -18.4 °F 15% 30.11 in 10.0 mi NNE 17.3 mph 31.1 mph N/A   Clear
2:55 PM 23.0 °F 11.7 °F -16.6 °F 17% 30.13 in 10.0 mi NE 11.5 mph 25.3 mph N/A   Clear
3:15 PM 21.2 °F 8.9 °F -14.8 °F 20% 30.13 in 10.0 mi NNE 12.7 mph 21.9 mph N/A   Clear
3:35 PM 21.2 °F 10.9 °F -13.0 °F 22% 30.14 in 10.0 mi ENE 9.2 mph 20.7 mph N/A   Clear
3:55 PM 21.2 °F 11.7 °F -13.0 °F 22% 30.15 in 10.0 mi NNE 8.1 mph 23.0 mph N/A   Clear
4:15 PM 21.2 °F 11.7 °F -11.2 °F 24% 30.16 in 10.0 mi NE 8.1 mph 17.3 mph N/A   Clear
4:35 PM 21.2 °F 5.6 °F -9.4 °F 26% 30.15 in 10.0 mi ENE 20.7 mph 28.8 mph N/A   Clear
4:55 PM 21.2 °F 10.1 °F -7.6 °F 28% 30.16 in 10.0 mi NE 10.4 mph 21.9 mph N/A   Clear
5:15 PM 19.4 °F 6.0 °F -7.6 °F 30% 30.16 in 10.0 mi NE 13.8 mph 24.2 mph N/A   Clear
5:35 PM 21.2 °F 6.8 °F -7.6 °F 28% 30.16 in 10.0 mi NE 17.3 mph 31.1 mph N/A   Clear
5:55 PM 21.2 °F 7.3 °F -7.6 °F 28% 30.17 in 10.0 mi NE 16.1 mph 33.4 mph N/A   Clear
6:15 PM 21.2 °F 6.8 °F -5.8 °F 30% 30.18 in 10.0 mi NNE 17.3 mph 34.5 mph N/A   Clear
6:35 PM 21.2 °F 8.9 °F -5.8 °F 30% 30.19 in 10.0 mi NNE 12.7 mph 24.2 mph N/A   Clear
6:55 PM 21.2 °F 6.4 °F -5.8 °F 30% 30.20 in 10.0 mi NE 18.4 mph 31.1 mph N/A   Clear
7:15 PM 21.2 °F 5.2 °F -5.8 °F 30% 30.20 in 10.0 mi NE 21.9 mph 29.9 mph N/A   Clear
7:35 PM 21.2 °F 5.2 °F -5.8 °F 30% 30.19 in 10.0 mi ENE 21.9 mph 29.9 mph N/A   Clear
7:55 PM 21.2 °F 6.0 °F -5.8 °F 30% 30.19 in 10.0 mi NE 19.6 mph 29.9 mph N/A   Clear
8:15 PM 21.2 °F 8.3 °F -7.6 °F 28% 30.20 in 10.0 mi NE 13.8 mph 24.2 mph N/A   Clear
8:35 PM 21.2 °F 7.3 °F -7.6 °F 28% 30.21 in 10.0 mi NE 16.1 mph 31.1 mph N/A   Clear
8:55 PM 21.2 °F 5.2 °F -5.8 °F 30% 30.21 in 10.0 mi NE 21.9 mph 29.9 mph N/A   Clear
9:15 PM 21.2 °F 7.3 °F -5.8 °F 30% 30.22 in 10.0 mi NE 16.1 mph 28.8 mph N/A   Clear
9:35 PM 21.2 °F 8.9 °F -5.8 °F 30% 30.20 in 10.0 mi NE 12.7 mph 28.8 mph N/A   Clear
9:55 PM 23.0 °F 11.1 °F -2.2 °F 33% 30.21 in 10.0 mi NE 12.7 mph 26.5 mph N/A   Clear
10:15 PM 23.0 °F 9.6 °F -0.4 °F 36% 30.21 in 10.0 mi North 16.1 mph 28.8 mph N/A   Clear
10:35 PM 23.0 °F 10.1 °F -0.4 °F 36% 30.21 in 10.0 mi North 15.0 mph 27.6 mph N/A   Clear
10:55 PM 23.0 °F 9.6 °F -0.4 °F 36% 30.21 in 10.0 mi NNE 16.1 mph 29.9 mph N/A   Clear
11:15 PM 23.0 °F 8.7 °F 1.4 °F 39% 30.21 in 10.0 mi NNE 18.4 mph 25.3 mph N/A   Clear
11:35 PM 24.8 °F 13.4 °F 3.2 °F 40% 30.21 in 10.0 mi NNE 12.7 mph 28.8 mph N/A   Clear
11:55 PM 24.8 °F 11.9 °F 3.2 °F 40% 30.20 in 10.0 mi NNE 16.1 mph 26.5 mph N/A   Clear